• In Schweiz
  • Länderverzeichnis
  • Für 7 Tage
  • Wassertemperatur
  • Satellitenkarten
  • Wetterkarte
  • Widgets
  • user-avatar
    Anmelden

    Stündliche Wetter Bern

    Heute, 21 Februar, Mittwoch

    Zeit Temperatur Niederschläge Wind Luftdruck Luftfeuchtigkeit
    00:00 -5°C° 0 mm 2 m/S 712 mmHg 89%
    01:00 -5°C° 0 mm 2 m/S 712 mmHg 88%
    02:00 -5°C° 0 mm 2 m/S 712 mmHg 88%
    03:00 -5°C° 0 mm 2 m/S 712 mmHg 87%
    04:00 -7°C° 0 mm 3 m/S 712 mmHg 87%
    05:00 -7°C° 0 mm 3 m/S 712 mmHg 86%
    06:00 -7°C° 0 mm 3 m/S 712 mmHg 86%
    07:00 -6°C° 0 mm 3 m/S 712 mmHg 83%
    08:00 -5°C° 0 mm 4 m/S 712 mmHg 80%
    09:00 -4°C° 0 mm 4 m/S 712 mmHg 78%
    10:00 -3°C° 0 mm 4 m/S 711 mmHg 76%
    11:00 -2°C° 0 mm 4 m/S 711 mmHg 74%
    12:00 -1°C° 0 mm 4 m/S 711 mmHg 73%
    13:00 -1°C° 0 mm 4 m/S 711 mmHg 74%
    14:00 -1°C° 0 mm 4 m/S 711 mmHg 75%
    15:00 -1°C° 0 mm 4 m/S 711 mmHg 76%
    16:00 -2°C° 0,1 mm 4 m/S 711 mmHg 79%
    17:00 -1°C° 0,1 mm 3 m/S 711 mmHg 82%
    18:00 -2°C° 0,1 mm 3 m/S 711 mmHg 85%
    19:00 -4°C° 0 mm 3 m/S 711 mmHg 86%
    20:00 -4°C° 0 mm 3 m/S 711 mmHg 87%
    21:00 -5°C° 0 mm 3 m/S 711 mmHg 88%
    22:00 -5°C° 0 mm 3 m/S 711 mmHg 88%
    23:00 -5°C° 0 mm 3 m/S 711 mmHg 88%

    Morgen, 22 Februar, Donnerstag

    Zeit Temperatur Niederschläge Wind Luftdruck Luftfeuchtigkeit
    00:00 -6°C° 0 mm 3 m/S 711 mmHg 88%
    01:00 -6°C° 0 mm 3 m/S 710 mmHg 88%
    02:00 -6°C° 0 mm 3 m/S 710 mmHg 87%
    03:00 -6°C° 0 mm 3 m/S 710 mmHg 87%
    04:00 -6°C° 0,1 mm 3 m/S 709 mmHg 87%
    05:00 -6°C° 0,1 mm 3 m/S 709 mmHg 86%
    06:00 -7°C° 0,1 mm 4 m/S 709 mmHg 86%
    07:00 -5°C° 0 mm 4 m/S 709 mmHg 83%
    08:00 -5°C° 0 mm 4 m/S 709 mmHg 81%
    09:00 -4°C° 0 mm 4 m/S 709 mmHg 78%
    10:00 -3°C° 0 mm 4 m/S 709 mmHg 77%
    11:00 -2°C° 0 mm 4 m/S 709 mmHg 75%
    12:00 -2°C° 0 mm 4 m/S 708 mmHg 73%
    13:00 -2°C° 0 mm 4 m/S 708 mmHg 74%
    14:00 -2°C° 0 mm 4 m/S 708 mmHg 75%
    15:00 -2°C° 0 mm 4 m/S 708 mmHg 76%
    16:00 -2°C° 0 mm 4 m/S 708 mmHg 79%
    17:00 -3°C° 0 mm 4 m/S 708 mmHg 83%
    18:00 -4°C° 0 mm 3 m/S 709 mmHg 86%
    19:00 -4°C° 0 mm 3 m/S 709 mmHg 86%
    20:00 -4°C° 0 mm 3 m/S 709 mmHg 86%
    21:00 -4°C° 0 mm 3 m/S 709 mmHg 87%
    22:00 -4°C° 0 mm 3 m/S 709 mmHg 86%
    23:00 -5°C° 0 mm 3 m/S 709 mmHg 86%

    übermorgen, 23 Februar, Freitag

    Zeit Temperatur Niederschläge Wind Luftdruck Luftfeuchtigkeit
    00:00 -5°C° 0 mm 3 m/S 709 mmHg 86%
    01:00 -5°C° 0 mm 3 m/S 709 mmHg 85%
    02:00 -5°C° 0 mm 3 m/S 708 mmHg 85%
    03:00 -4°C° 0 mm 2 m/S 708 mmHg 84%
    04:00 -4°C° 0 mm 2 m/S 708 mmHg 84%
    05:00 -4°C° 0 mm 2 m/S 708 mmHg 83%
    06:00 -4°C° 0 mm 2 m/S 709 mmHg 83%
    07:00 -4°C° 0 mm 3 m/S 709 mmHg 80%
    08:00 -2°C° 0 mm 3 m/S 709 mmHg 78%
    09:00 -1°C° 0 mm 3 m/S 709 mmHg 75%
    10:00 0°C° 0 mm 3 m/S 709 mmHg 74%
    11:00 0°C° 0 mm 3 m/S 709 mmHg 74%
    12:00 0°C° 0 mm 4 m/S 709 mmHg 73%
    13:00 0°C° 0 mm 4 m/S 709 mmHg 74%
    14:00 0°C° 0 mm 4 m/S 708 mmHg 76%
    15:00 +1°C° 0 mm 3 m/S 708 mmHg 77%
    16:00 0°C° 0 mm 3 m/S 709 mmHg 81%
    17:00 -1°C° 0 mm 3 m/S 709 mmHg 84%
    18:00 -2°C° 0 mm 3 m/S 709 mmHg 88%
    19:00 -2°C° 0 mm 2 m/S 709 mmHg 88%
    20:00 -2°C° 0 mm 2 m/S 709 mmHg 88%
    21:00 -2°C° 0 mm 2 m/S 709 mmHg 88%
    22:00 -2°C° 0 mm 2 m/S 709 mmHg 88%
    23:00 -2°C° 0 mm 2 m/S 709 mmHg 88%

    24 Februar, Samstag

    Zeit Temperatur Niederschläge Wind Luftdruck Luftfeuchtigkeit
    00:00 0°C° 0 mm 1 m/S 709 mmHg 88%
    01:00 0°C° 0,1 mm 1 m/S 709 mmHg 89%
    02:00 0°C° 0,1 mm 1 m/S 710 mmHg 89%
    03:00 0°C° 0,1 mm 1 m/S 710 mmHg 90%
    04:00 0°C° 0,1 mm 1 m/S 710 mmHg 90%
    05:00 0°C° 0,1 mm 1 m/S 710 mmHg 90%
    06:00 0°C° 0,1 mm 1 m/S 710 mmHg 91%
    07:00 -1°C° 0 mm 2 m/S 710 mmHg 88%
    08:00 +1°C° 0 mm 2 m/S 710 mmHg 85%
    09:00 +2°C° 0 mm 2 m/S 710 mmHg 83%
    10:00 +3°C° 0 mm 2 m/S 710 mmHg 81%
    11:00 +4°C° 0 mm 2 m/S 710 mmHg 80%
    12:00 +3°C° 0 mm 3 m/S 710 mmHg 79%
    13:00 +3°C° 0 mm 3 m/S 710 mmHg 80%
    14:00 +3°C° 0 mm 3 m/S 710 mmHg 82%
    15:00 +3°C° 0 mm 3 m/S 710 mmHg 83%
    16:00 +2°C° 0 mm 3 m/S 710 mmHg 85%
    17:00 +1°C° 0 mm 3 m/S 710 mmHg 88%
    18:00 0°C° 0 mm 3 m/S 710 mmHg 91%
    19:00 -1°C° 0 mm 3 m/S 710 mmHg 90%
    20:00 -1°C° 0 mm 2 m/S 711 mmHg 90%
    21:00 -1°C° 0 mm 2 m/S 711 mmHg 89%
    22:00 -2°C° 0 mm 2 m/S 711 mmHg 89%
    23:00 -2°C° 0 mm 2 m/S 711 mmHg 88%

    25 Februar, Sonntag

    Zeit Temperatur Niederschläge Wind Luftdruck Luftfeuchtigkeit
    00:00 -3°C° 0 mm 2 m/S 711 mmHg 87%
    01:00 -3°C° 0 mm 2 m/S 711 mmHg 87%
    02:00 -3°C° 0 mm 2 m/S 711 mmHg 86%
    03:00 -4°C° 0 mm 2 m/S 711 mmHg 86%
    04:00 -4°C° 0 mm 2 m/S 711 mmHg 85%
    05:00 -5°C° 0 mm 3 m/S 711 mmHg 85%
    06:00 -6°C° 0 mm 3 m/S 712 mmHg 84%
    07:00 -5°C° 0 mm 3 m/S 712 mmHg 81%
    08:00 -5°C° 0 mm 4 m/S 712 mmHg 79%
    09:00 -4°C° 0 mm 4 m/S 712 mmHg 76%
    10:00 -4°C° 0 mm 4 m/S 712 mmHg 73%
    11:00 -4°C° 0 mm 5 m/S 712 mmHg 70%
    12:00 -2°C° 0 mm 5 m/S 712 mmHg 67%
    13:00 -4°C° 0 mm 5 m/S 713 mmHg 66%
    14:00 -4°C° 0 mm 5 m/S 713 mmHg 66%
    15:00 -5°C° 0 mm 5 m/S 713 mmHg 65%
    16:00 -6°C° 0 mm 5 m/S 713 mmHg 68%
    17:00 -8°C° 0 mm 4 m/S 714 mmHg 72%
    18:00 -9°C° 0 mm 4 m/S 714 mmHg 75%
    19:00 -10°C° 0 mm 4 m/S 715 mmHg 74%
    20:00 -11°C° 0 mm 4 m/S 715 mmHg 73%
    21:00 -10°C° 0 mm 3 m/S 715 mmHg 73%
    22:00 -12°C° 0 mm 3 m/S 715 mmHg 72%
    23:00 -12°C° 0 mm 3 m/S 715 mmHg 71%

    26 Februar, Montag

    Zeit Temperatur Niederschläge Wind Luftdruck Luftfeuchtigkeit
    00:00 -12°C° 0 mm 3 m/S 715 mmHg 70%
    01:00 -13°C° 0 mm 3 m/S 715 mmHg 70%
    02:00 -13°C° 0 mm 3 m/S 715 mmHg 70%
    03:00 -13°C° 0 mm 3 m/S 715 mmHg 70%
    04:00 -13°C° 0 mm 3 m/S 715 mmHg 70%
    05:00 -14°C° 0 mm 3 m/S 715 mmHg 71%
    06:00 -14°C° 0 mm 3 m/S 715 mmHg 72%
    07:00 -13°C° 0 mm 3 m/S 715 mmHg 69%
    08:00 -10°C° 0 mm 3 m/S 715 mmHg 66%
    09:00 -9°C° 0 mm 3 m/S 715 mmHg 63%
    10:00 -8°C° 0 mm 3 m/S 715 mmHg 59%
    11:00 -8°C° 0 mm 4 m/S 714 mmHg 56%
    12:00 -7°C° 0 mm 4 m/S 714 mmHg 52%
    13:00 -7°C° 0 mm 4 m/S 714 mmHg 52%
    14:00 -7°C° 0 mm 4 m/S 713 mmHg 52%
    15:00 -7°C° 0 mm 4 m/S 713 mmHg 52%
    16:00 -8°C° 0 mm 4 m/S 713 mmHg 57%
    17:00 -9°C° 0 mm 3 m/S 713 mmHg 62%
    18:00 -10°C° 0 mm 3 m/S 713 mmHg 68%
    19:00 -12°C° 0 mm 3 m/S 713 mmHg 69%
    20:00 -13°C° 0 mm 3 m/S 713 mmHg 70%
    21:00 -13°C° 0 mm 3 m/S 713 mmHg 71%
    22:00 -12°C° 0 mm 2 m/S 713 mmHg 69%
    23:00 -13°C° 0 mm 2 m/S 713 mmHg 68%
    Mehr zeigen